Weather in Kordelivka

Ukraine / Vinnytsia Region     49°31′18″N   28°32′47″E
temp.,
°C
wind,
m/s
gust,
m/s
humid.,
%
clouds,
%
prec.,
mm/h
press.,
hPa
HPBL,
m
11 may, tue
tue1100:00+9ese37790 0.0 1023110
03:00+7ese34770 0.0 102360
06:00+6e23750 0.0 102329
09:00+12ene34580 0.0 1023444
12:00+16ene33474 0.0 1021924
15:00+19ene33501 0.0 10191112
18:00+19ne34551 0.0 10181144
21:00+14ene33760 0.0 101839
12 may, wed
wed1200:00+11ene36910 0.0 1017117
03:00+10e499829 0.0 1016248
06:00+10e498911 0.0 1016461
09:00+10e68700 0.0 1017812
12:00+12e786254 0.0 10161349
15:00+11e5765100 0.1 10161102
18:00+11e3774100 0.1 1015558
21:00+8e228494 0.1 101315
13 may, thu
thu1300:00+6ese229216 0.0 101327
03:00+5ese339447 0.0 101238
06:00+5se3695100 0.0 1011128
09:00+11sse587126 0.0 1010609
12:00+10se61182100 0.0 1010785
15:00+11se81278100 0.1 1009858
18:00+14sse71177100 0.1 10071101
21:00+11se61295100 0.4 1008513
14 may, fri
fri1400:00+11sse61292100 2.0 1007657
03:00+10se41092100 2.1 1007312
06:00+8sse38955 0.0 1007173
09:00+12sse4582100 0.0 1007351
12:00+17s3469100 0.0 1007804
15:00+14ssw3584100 3.1 1007150
18:00+16ssw348292 4.6 1007382
21:00+12w338885 6.1 100731
15 may, sat
sat1500:00+11wnw3391100 0.4 100957
03:00+10wnw2288100 0.4 101019
06:00+9sw228999 0.0 101029
09:00+11sw2686100 0.0 1012237
12:00+16sw586696 0.0 10121228
15:00+18w575757 0.2 10111795
18:00+18wsw34595 0.1 10111272
21:00+12nnw33828 0.1 101136